Regional Weather Roundup
Issued by NWS Cleveland, OH

Home | Current Version | Previous Version | Graphics & Text | Print | Product List | Glossary On
Versions: 1 2 3 4 5 6 7 8 9 10 11 12 13 14 15 16 17 18 19 20 21 22 23 24 25 26 27 28 29 30 31 32 33 34 35 36 37 38 39 40 41 42 43 44 45 46 47 48 49 50
000
ASUS41 KCLE 221402
RWRCLE
OHIO REGIONAL WEATHER ROUNDUP
NATIONAL WEATHER SERVICE CLEVELAND, OH
1000 AM EDT SAT JUL 22 2017

NOTE: "FAIR" INDICATES FEW OR NO CLOUDS BELOW 12,000 FEET WITH NO
SIGNIFICANT WEATHER AND/OR OBSTRUCTIONS TO VISIBILITY.

OHZ001>008-015>018-024>027-034-035-043-044-221500-
   NORTHWEST OHIO

CITY           SKY/WX    TMP DP  RH WIND       PRES   REMARKS
DEFIANCE       CLOUDY   N/A N/A N/A S9        29.85F
FINDLAY        CLOUDY    75  70  84 SW9       29.86R
TOLEDO EXPRESS CLOUDY    73  73 100 W8        29.85R
TOLEDO EXEC    CLOUDY    74  72  93 SW5       29.86R
LIMA           LGT RAIN  72  71  97 SW9       29.89S
$$

OHZ009>014-019>023-028>033-038-089-221500-
   NORTHEAST OHIO

CITY           SKY/WX    TMP DP  RH WIND       PRES   REMARKS
CLE-HOPKINS    LGT RAIN  76  71  85 S3        29.87S
CLE-LAKEFRONT  HVY RAIN  76  73  91 SW5       29.84S FOG
CUY CO. ARPT   LGT RAIN  75  68  78 SE7       29.86F FOG
LORAIN-ELYRIA  CLOUDY    73  68  84 SW9       29.87S
ASHTABULA      CLOUDY    72  70  93 SE6       29.90F
AKRON-CANTON   LGT RAIN  75  71  87 SW8       29.88R FOG
WOOSTER        CLOUDY    72  70  93 SW8       29.89R
MANSFIELD      HVY RAIN  70  70 100 VRB6      29.87F FOG
YOUNGSTOWN     LGT RAIN  73  72  96 S7        29.90F FOG
$$

OHZ042-051>053-060>062-070>072-077>081-221500-
  SOUTHWEST OHIO

CITY           SKY/WX    TMP DP  RH WIND       PRES   REMARKS
CINC-COVINGTON PTSUNNY   83  78  85 SW8       29.92S HX  93
CINC-LUNKEN    CLOUDY    82  78  88 S7        29.91S HX  91
HAMILTON       PTSUNNY   81  74  79 S5        29.91S
DAYTON         CLOUDY    74  71  91 S7        29.91R
WRIGHT-PAT AFB PTSUNNY   76  76  99 S8        29.90R
DAYTON GENERAL CLOUDY    76  72  87 S9        29.90R
WILMINGTON     CLOUDY    77  75  93 S6        29.92R
$$

OHZ036-037-039>041-045>050-054>059-063>069-073>076-082>088-221500-
  CENTRAL AND SOUTHEAST OHIO

CITY           SKY/WX    TMP DP  RH WIND       PRES   REMARKS
COLUMBUS       CLOUDY    73  73 100 S7        29.90S
OSU AIRPORT    CLOUDY    72  72 100 S8        29.90S
BOLTON FIELD   MOSUNNY   73  72  94 S9G16     29.92R
RICKENBACK AFB CLOUDY    72  72  99 S6        29.90S
NEWARK         CLOUDY    74  71  91 S7        29.91S
MARION         LGT RAIN  71  69  93 S9        29.89S
LANCASTER      PTSUNNY   70  70 100 S6        29.92S
ZANESVILLE     CLOUDY    71  69  93 S7        29.92F
NEW PHILLY     NOT AVBL
$$




USA.gov is the U.S. government's official web portal to all federal, state and local government web resources and services.